Toms River, NJ

1:58 AM EDT on October 21, 2019 (GMT -0400)
Miller

Weather History for KMJX - August, 2019

Change the Weather History Date:

Wednesday, August 7, 2019

  Actual Average Record
Temperature  
Mean Temperature 80 °F -  
Max Temperature 89 °F 84 °F 95 °F (1977)
Min Temperature 69 °F 61 °F 51 °F (1992)
Cooling Degree Days 15    
Growing Degree Days 30 (Base 50)    
Moisture  
Dew Point 77 °F    
Average Humidity 84    
Maximum Humidity 100    
Minimum Humidity 65    
Precipitation  
Precipitation 0.00 in - - ()
Sea Level Pressure  
Sea Level Pressure 29.82 in    
Wind  
Wind Speed 8 mph (South)    
Max Wind Speed 21 mph    
Max Gust Speed 33 mph    
Visibility 10 miles    
Events Rain , Thunderstorm    
Averages and records for this station are not official NWS values.
T = Trace of Precipitation, MM = Missing Value Source: NWS Daily Summary

Daily Weather History Graph

Daily Weather History Graph

Search for Another Location

Airport or City:

Astronomy

Aug. 07, 2019 Rise Set
Actual Time 6:01 AM EDT 8:04 PM EDT
Civil Twilight 5:31 AM EDT 8:33 PM EDT
Nautical Twilight 4:54 AM EDT 9:10 PM EDT
Astronomical Twilight 4:15 AM EDT 9:49 PM EDT
Moon 1:30 PM EDT (8/7) No Moon Set
Length of Visible Light 15h 02m
Length of Day
14h 03m
Waxing Crescent, 49% of the Moon is Illuminated
Aug 7
Waxing Crescent
Aug 7
First Quarter
Aug 15
Full
Aug 23
Last Quarter
Aug 30
New

Hourly Weather History & Observations

Time (EDT) Temp. Heat Index Dew Point Humidity Pressure Visibility Wind Dir Wind Speed Gust Speed Precip Events Conditions
12:56 AM - - - N/A% 29.85 in 10.0 mi SSW 4.6 mph - N/A   Clear
1:56 AM - - - N/A% 29.85 in 10.0 mi SSW 5.8 mph - N/A   Clear
2:56 AM - - - N/A% 29.84 in 10.0 mi SSW 4.6 mph - N/A   Clear
3:56 AM - - - N/A% 29.84 in 10.0 mi South 4.6 mph - N/A   Clear
4:56 AM - - - N/A% 29.84 in 10.0 mi South 4.6 mph - N/A   Scattered Clouds
5:56 AM - - - N/A% 29.85 in 10.0 mi South 8.1 mph - N/A   Mostly Cloudy
6:56 AM 72.0 °F - - N/A% 29.87 in 10.0 mi SSW 3.5 mph - N/A   Mostly Cloudy
7:56 AM 73.0 °F - - N/A% 29.86 in 10.0 mi South 3.5 mph - N/A   Overcast
8:43 AM 77.0 °F - - N/A% 29.87 in 10.0 mi South 8.1 mph - N/A   Overcast
8:56 AM 78.1 °F - - N/A% 29.87 in 10.0 mi SSE 5.8 mph - N/A   Overcast
9:13 AM 78.8 °F - - N/A% 29.86 in 10.0 mi South 9.2 mph - N/A   Overcast
9:24 AM 80.6 °F - - N/A% 29.86 in 10.0 mi SSE 9.2 mph - N/A   Overcast
9:56 AM 81.0 °F - - N/A% 29.85 in 10.0 mi South 6.9 mph - N/A   Overcast
10:26 AM 82.4 °F 96.1 °F 82.4 °F 100% 29.85 in 10.0 mi South 8.1 mph 16.1 mph N/A   Overcast
10:56 AM 84.0 °F 99.9 °F 82.0 °F 94% 29.84 in 10.0 mi South 10.4 mph - N/A   Mostly Cloudy
11:51 AM 87.8 °F 104.9 °F 80.6 °F 79% 29.84 in 10.0 mi South 10.4 mph - N/A   Scattered Clouds
11:56 AM 86.0 °F 98.3 °F 78.1 °F 77% 29.84 in 10.0 mi SSE 8.1 mph - N/A   Scattered Clouds
12:29 PM 87.8 °F 102.5 °F 78.8 °F 75% 29.83 in 10.0 mi South 9.2 mph - N/A   Mostly Cloudy
12:45 PM 89.6 °F 104.7 °F 78.8 °F 70% 29.82 in 10.0 mi South 13.8 mph 17.3 mph N/A   Scattered Clouds
12:56 PM 88.0 °F 103.1 °F 79.0 °F 75% 29.81 in 10.0 mi SSE 15.0 mph 19.6 mph N/A   Partly Cloudy
1:34 PM 82.4 °F 96.1 °F 82.4 °F 100% 29.79 in 9.0 mi South 9.2 mph - N/A Rain , Thunderstorm Light Thunderstorms and Rain
1:56 PM 86.0 °F 98.3 °F 78.1 °F 77% 29.78 in 10.0 mi South 15.0 mph 26.5 mph N/A Thunderstorm Partly Cloudy
2:08 PM 87.8 °F 99.7 °F 77.0 °F 70% 29.78 in 10.0 mi South 17.3 mph 23.0 mph N/A   Clear
2:56 PM 88.0 °F 97.5 °F 75.0 °F 65% 29.75 in 10.0 mi South 17.3 mph 27.6 mph N/A   Clear
3:56 PM 82.9 °F 89.4 °F 73.9 °F 74% 29.74 in 10.0 mi South 13.8 mph 20.7 mph N/A   Clear
4:56 PM 84.9 °F 95.3 °F 77.0 °F 77% 29.74 in 10.0 mi South 15.0 mph 26.5 mph N/A   Partly Cloudy
5:56 PM 82.0 °F 91.6 °F 79.0 °F 90% 29.76 in 10.0 mi SSW 12.7 mph 16.1 mph N/A   Mostly Cloudy
6:56 PM 78.1 °F - 75.0 °F 90% 29.80 in 10.0 mi NW 17.3 mph 33.4 mph N/A Thunderstorm Mostly Cloudy
7:04 PM 75.2 °F - 73.4 °F 94% 29.81 in 10.0 mi WNW 20.7 mph 27.6 mph N/A Thunderstorm Overcast
7:08 PM 75.2 °F - 73.4 °F 94% 29.81 in 10.0 mi NNW 15.0 mph 26.5 mph N/A Thunderstorm Overcast
7:11 PM 73.4 °F - 73.4 °F 100% 29.81 in 10.0 mi NW 16.1 mph 26.5 mph N/A   Overcast
7:29 PM 71.6 °F - 71.6 °F 100% 29.84 in 10.0 mi WNW 9.2 mph 17.3 mph N/A Thunderstorm Overcast
7:33 PM 71.6 °F - - N/A% 29.83 in 10.0 mi NNW 13.8 mph - N/A Rain , Thunderstorm Light Rain
7:56 PM 69.1 °F - - N/A% 29.84 in 5.0 mi NNW 6.9 mph - N/A Rain , Thunderstorm Heavy Thunderstorms and Rain
8:38 PM - - - N/A% 29.81 in 10.0 mi WNW 4.6 mph - N/A Rain Rain
8:56 PM - - - N/A% 29.81 in 9.0 mi Calm Calm - N/A Rain Rain
9:56 PM - - - N/A% 29.80 in 9.0 mi ESE 4.6 mph - N/A Rain Light Rain
10:08 PM - - - N/A% 29.79 in 7.0 mi SE 6.9 mph - N/A Rain Light Rain
10:18 PM - - - N/A% 29.78 in 10.0 mi ESE 4.6 mph - N/A Rain Light Rain
10:39 PM - - - N/A% 29.79 in 10.0 mi Calm Calm - N/A   Scattered Clouds
10:56 PM - - - N/A% 29.79 in 10.0 mi WNW 5.8 mph - N/A   Mostly Cloudy
11:06 PM - - - N/A% 29.79 in 10.0 mi West 3.5 mph - N/A   Mostly Cloudy
11:17 PM - - - N/A% 29.79 in 9.0 mi Calm Calm - N/A   Scattered Clouds
11:56 PM - - - N/A% 29.79 in 8.0 mi Calm Calm - N/A   Clear